(57893) = 1994 BW1 = 1996 VJ1 = 2002 CJ95

Discovered at Socorro on 2002-02-07 by LINEAR.

Orbit

Orbit type: Main Belt

Note: WebGL enabled browser required.

epoch2023-09-13.0
epoch JD2460200.5
perihelion date2022-04-01.90768
perihelion JD2459671.40768
argument of perihelion (°)265.94507
ascending node (°)10.90804
inclination (°)1.14971
eccentricity0.1675658
perihelion distance (AU)2.0274623
Tisserand w.r.t. Jupiter3.5
ΔV w.r.t. Earth (km/sec)8.9
semimajor axis (AU)2.4355826
mean anomaly (°)137.19270
mean daily motion (°/day)0.25929820
aphelion distance (AU)2.844
period (years)3.8
P-vector [x]0.11928621
P-vector [y]-0.90278467
P-vector [z]-0.41321984
Q-vector [x]0.99285265
Q-vector [y]0.11005503
Q-vector [z]0.04616824
absolute magnitude16.31
phase slope0.15
uncertainty0
referenceMPEC 2024-A55
observations used963
oppositions21
arc length (days)11395
first opposition used1992
last opposition used2024
residual rms (arc-secs)0.73
perturbers coarse indicatorM-v
perturbers precise indicator003Ek
first observation date used1992-10-22.0
last observation date used2024-01-03.0
computer nameMPCLINUX
JD of orbit computation2456909.222976
perihelion JD uncertainty (days)4.7832E-05
argument of perihelion uncertainty (°)1.6185E-04
ascending node uncertainty (°)1.6127E-04
inclination uncertainty (°)4.2008E-06
eccentricity uncertainty 2.8851E-08
perihelion distance uncertainty (AU)7.1761E-08
Minimum Orbit Intersection Distances (in AU)
for orbit epoch: 2460200.5, reference: E2024-A55
Mercury1.56619
Venus1.30011
Earth1.0108
Mars0.55673
Jupiter2.26745
Saturn6.21344
Uranus15.8066
Neptune27.1518

Observations

986 total observations over interval: 1992 10 22.25039 – 2024 01 03.329046
These data are available for download (format description).

Date (UT) J2000 RA J2000 Dec Magn Location Ref
1992 10 22.25039 01 41 25.44 +11 06 14.0   691 – Steward Observatory, Kitt Peak-Spacewatch MPS 59880
1992 10 22.28278 01 41 23.33 +11 06 04.8   691 – Steward Observatory, Kitt Peak-Spacewatch MPS 59880
1992 10 22.30466 01 41 22.12 +11 05 58.2 19.1 V 691 – Steward Observatory, Kitt Peak-Spacewatch MPS 59880
1994 01 18.21593 08 09 16.12 +21 52 37.9 20.3 V 691 – Steward Observatory, Kitt Peak-Spacewatch MPC 23065
1994 01 18.23929 08 09 14.60 +21 52 42.7   691 – Steward Observatory, Kitt Peak-Spacewatch MPC 23065
1994 01 18.26290 08 09 13.10 +21 52 45.9   691 – Steward Observatory, Kitt Peak-Spacewatch MPC 23065
1994 01 19.31431 08 08 05.59 +21 56 04.6 19.8 V 691 – Steward Observatory, Kitt Peak-Spacewatch MPC 23065
1994 01 19.34564 08 08 03.48 +21 56 10.3   691 – Steward Observatory, Kitt Peak-Spacewatch MPC 23065
1994 01 19.37679 08 08 01.41 +21 56 16.2   691 – Steward Observatory, Kitt Peak-Spacewatch MPC 23065
1996 11 07.27310 03 07 16.50 +18 41 04.5 19.0 R 684 – Prescott MPC 28179
1996 11 07.27670 03 07 16.23 +18 41 03.1   684 – Prescott MPC 28179
1996 11 07.28009 03 07 16.03 +18 41 02.0   684 – Prescott MPC 28179
1996 11 08.26216 03 06 14.80 +18 37 15.9 18.9 R 684 – Prescott MPC 28179
1996 11 08.28338 03 06 13.44 +18 37 11.5   684 – Prescott MPC 28179
1996 11 08.28897 03 06 13.06 +18 37 10.1   684 – Prescott MPC 28179
1996 11 09.30221 03 05 09.81 +18 33 14.1 19.2 R 684 – Prescott MPC 28179
1996 11 09.30892 03 05 09.37 +18 33 12.7   684 – Prescott MPC 28179
1999 06 15.35964 19 51 01.75 -23 10 44.6 18.8   704 – Lincoln Laboratory ETS, New Mexico MPS 59880
1999 06 15.37165 19 51 01.26 -23 10 44.5 19.0   704 – Lincoln Laboratory ETS, New Mexico MPS 59880
1999 06 15.38391 19 51 01.01 -23 10 46.7 19.0   704 – Lincoln Laboratory ETS, New Mexico MPS 59880
1999 06 15.39615 19 51 00.69 -23 10 47.7 19.1   704 – Lincoln Laboratory ETS, New Mexico MPS 59880
1999 06 15.40819 19 51 00.32 -23 10 47.7 19.0   704 – Lincoln Laboratory ETS, New Mexico MPS 59880
1999 07 16.23147 19 26 49.76 -24 14 13.9 18.5   704 – Lincoln Laboratory ETS, New Mexico MPS 59880
1999 07 16.24423 19 26 49.08 -24 14 15.5 18.1   704 – Lincoln Laboratory ETS, New Mexico MPS 59880
1999 07 16.26983 19 26 47.46 -24 14 18.2 18.7   704 – Lincoln Laboratory ETS, New Mexico MPS 59880
1999 07 16.28259 19 26 46.64 -24 14 19.3 18.8   704 – Lincoln Laboratory ETS, New Mexico MPS 59880
2002 02 07.38329 10 52 31.45 +08 23 17.9 20.0   704 – Lincoln Laboratory ETS, New Mexico MPS 50264
2002 02 07.39814 10 52 30.75 +08 23 20.0 20.4   704 – Lincoln Laboratory ETS, New Mexico MPS 50264
2002 02 07.42728 10 52 29.39 +08 23 27.7 19.9   704 – Lincoln Laboratory ETS, New Mexico MPS 50264
2002 02 10.31857 10 50 16.26 +08 36 40.7 19.2   704 – Lincoln Laboratory ETS, New Mexico MPS 50264
2002 02 10.33273 10 50 15.55 +08 36 43.6 19.7   704 – Lincoln Laboratory ETS, New Mexico MPS 50264
2002 02 10.34691 10 50 14.86 +08 36 48.6 19.9   704 – Lincoln Laboratory ETS, New Mexico MPS 50264
2002 02 10.37524 10 50 13.42 +08 36 56.5 20.2   704 – Lincoln Laboratory ETS, New Mexico MPS 50264
2002 02 12.37973 10 48 35.17 +08 46 35.7 19.7   704 – Lincoln Laboratory ETS, New Mexico MPS 55436
2002 02 12.39616 10 48 34.28 +08 46 40.9 19.9   704 – Lincoln Laboratory ETS, New Mexico MPS 55436
2002 02 12.42467 10 48 32.85 +08 46 49.7 19.7   704 – Lincoln Laboratory ETS, New Mexico MPS 55436
2002 02 12.43891 10 48 32.07 +08 46 53.2 19.6   704 – Lincoln Laboratory ETS, New Mexico MPS 55436
2002 02 13.33450 10 47 46.95 +08 51 17.2 20.1 V 691 – Steward Observatory, Kitt Peak-Spacewatch MPS 52664
2002 02 13.35641 10 47 45.78 +08 51 23.6 20.4 V 691 – Steward Observatory, Kitt Peak-Spacewatch MPS 52664
2002 02 13.37775 10 47 44.65 +08 51 30.1 20.6 V 691 – Steward Observatory, Kitt Peak-Spacewatch MPS 52664
2002 02 20.27170 10 41 32.58 +09 27 16.1 20.2   704 – Lincoln Laboratory ETS, New Mexico MPS 55436
2002 02 20.28561 10 41 31.83 +09 27 19.9 20.2   704 – Lincoln Laboratory ETS, New Mexico MPS 55436
2002 02 20.29936 10 41 31.08 +09 27 23.9 19.5   704 – Lincoln Laboratory ETS, New Mexico MPS 55437
2002 02 22.30368 10 39 37.00 +09 38 08.9 19.2   644 – Palomar Mountain/NEAT MPS 55437
2002 02 22.36690 10 39 33.21 +09 38 29.2 19.6   644 – Palomar Mountain/NEAT MPS 55437
2002 02 22.43354 10 39 29.28 +09 38 50.8 19.3   644 – Palomar Mountain/NEAT MPS 55437
2002 02 24.28438 10 37 42.62 +09 48 49.4 20.4   644 – Palomar Mountain/NEAT MPS 55437
2002 02 24.30553 10 37 41.36 +09 48 56.7 19.2   644 – Palomar Mountain/NEAT MPS 55437
2002 02 24.32803 10 37 40.00 +09 49 03.7 19.4   644 – Palomar Mountain/NEAT MPS 55437
2002 03 09.27249 10 25 09.99 +10 56 35.2 20.6   644 – Palomar Mountain/NEAT MPS 55437
2002 03 09.34830 10 25 05.60 +10 56 57.2 19.7   644 – Palomar Mountain/NEAT MPS 55437
2002 03 09.41792 10 25 01.61 +10 57 17.1 20.4   644 – Palomar Mountain/NEAT MPS 55437
2002 03 12.36880 10 22 20.14 +11 11 10.5 19.9   644 – Palomar Mountain/NEAT MPS 55437
2002 03 12.39803 10 22 18.52 +11 11 18.2 20.0   644 – Palomar Mountain/NEAT MPS 55437
2002 03 12.43410 10 22 16.55 +11 11 28.2 19.9   644 – Palomar Mountain/NEAT MPS 55437
2002 03 14.18125 10 20 44.73 +11 19 16.1 19.7   704 – Lincoln Laboratory ETS, New Mexico MPS 55437
2002 03 14.20716 10 20 43.32 +11 19 23.0 20.0   704 – Lincoln Laboratory ETS, New Mexico MPS 55437
2002 03 14.22019 10 20 42.60 +11 19 26.2 19.7   704 – Lincoln Laboratory ETS, New Mexico MPS 55437
2002 03 14.23321 10 20 41.89 +11 19 29.5 19.3   704 – Lincoln Laboratory ETS, New Mexico MPS 55437
2002 03 16.20624 10 19 01.40 +11 27 53.7 20.2   704 – Lincoln Laboratory ETS, New Mexico MPS 52664
2002 03 16.21905 10 19 00.77 +11 27 57.0 19.9   704 – Lincoln Laboratory ETS, New Mexico MPS 52664
2002 03 16.23191 10 19 00.19 +11 28 00.5 19.7   704 – Lincoln Laboratory ETS, New Mexico MPS 52664
2002 03 18.16818 10 17 25.76 +11 35 47.3 20.2 V 691 – Steward Observatory, Kitt Peak-Spacewatch MPS 55437
2002 03 18.20070 10 17 24.13 +11 35 55.4 21.1 V 691 – Steward Observatory, Kitt Peak-Spacewatch MPS 55437
2002 03 18.22242 10 17 23.11 +11 36 00.4 20.5 V 691 – Steward Observatory, Kitt Peak-Spacewatch MPS 55437
2003 07 25.32006 22 27 29.91 -11 24 41.3 18.4   704 – Lincoln Laboratory ETS, New Mexico MPS 82575
2003 07 25.33155 22 27 29.58 -11 24 43.2 19.2   704 – Lincoln Laboratory ETS, New Mexico MPS 82575
2003 07 25.34193 22 27 29.28 -11 24 45.2 18.8   704 – Lincoln Laboratory ETS, New Mexico MPS 82575
2003 07 25.36243 22 27 28.61 -11 24 47.8 19.1   704 – Lincoln Laboratory ETS, New Mexico MPS 82575
2003 08 22.25200 22 05 58.56 -13 16 10.7 17.9   644 – Palomar Mountain/NEAT MPS 83864
2003 08 22.26385 22 05 57.77 -13 16 14.3 18.7   704 – Lincoln Laboratory ETS, New Mexico MPS 83864
2003 08 22.27673 22 05 56.93 -13 16 17.3 19.5   704 – Lincoln Laboratory ETS, New Mexico MPS 83864
2003 08 22.27774 22 05 57.08 -13 16 17.5 18.4   644 – Palomar Mountain/NEAT MPS 83864
2003 08 22.28933 22 05 56.35 -13 16 21.4 19.6   704 – Lincoln Laboratory ETS, New Mexico MPS 83864
2003 08 22.30193 22 05 55.64 -13 16 24.6 19.6   704 – Lincoln Laboratory ETS, New Mexico MPS 83864
2003 08 22.32361 22 05 54.41 -13 16 29.7 18.0   644 – Palomar Mountain/NEAT MPS 83864
2003 08 25.26967 22 03 11.75 -13 29 09.8 18.9   704 – Lincoln Laboratory ETS, New Mexico MPS 83864
2003 08 25.28213 22 03 11.03 -13 29 12.3 19.2   704 – Lincoln Laboratory ETS, New Mexico MPS 83864
2003 08 25.29503 22 03 10.30 -13 29 15.6 19.7   704 – Lincoln Laboratory ETS, New Mexico MPS 83864
2003 08 25.30752 22 03 09.56 -13 29 18.9 19.3   704 – Lincoln Laboratory ETS, New Mexico MPS 83864
2003 08 25.31988 22 03 08.82 -13 29 22.7 19.3   704 – Lincoln Laboratory ETS, New Mexico MPS 83864
2003 08 31.26284 21 57 52.25 -13 53 03.0 18.7 C 704 – Lincoln Laboratory ETS, New Mexico MPS 290903
2003 08 31.27476 21 57 51.55 -13 53 05.5 18.6 C 704 – Lincoln Laboratory ETS, New Mexico MPS 290903
2003 08 31.28669 21 57 50.92 -13 53 08.0 19.4 C 704 – Lincoln Laboratory ETS, New Mexico MPS 290903
2003 08 31.29845 21 57 50.35 -13 53 10.3 18.8 C 704 – Lincoln Laboratory ETS, New Mexico MPS 290903
2003 08 31.31026 21 57 49.76 -13 53 12.4 19.2 C 704 – Lincoln Laboratory ETS, New Mexico MPS 290903
